This demonstration page uses our WeatherBlox Daily Observations layout. Learn more.

Left ArrowRight Arrow

39.51506, -84.39828

Hourly Observations for October 25, 2020

Temp ( °F °C ) Dew Point ( °F °C ) Humidity (%) Winds ( mph kmh ) Pressure ( in mb ) Visibility ( mi km ) Precip ( " mm )
12:15 am 00:15 Mostly Cloudy 44 6.5 38 3.1 79 79 E 10 17 30.18 1022 10 16.0934 0 0
12:35 am 00:35 Mostly Cloudy 43 6.3 37 3 80 80 E 10 17 30.17 1022 10 16.0934 0 0
12:55 am 00:55 Partly Cloudy 43 6.1 37 3 81 81 ENE 7 11 30.17 1022 10 16.0934 0 0
1:15 am 01:15 Mostly Cloudy 43 6.2 38 3.1 81 81 E 8 13 30.16 1021 10 16.0934 0 0
1:35 am 01:35 Cloudy 43 6.2 38 3.1 81 81 E 8 13 30.16 1021 10 16.0934 0 0
1:55 am 01:55 Cloudy 44 6.4 37 3 79 79 E 8 13 30.16 1021 10 16.0934 0 0
2:15 am 02:15 Cloudy 44 6.5 37 3 79 79 E 7 11 30.16 1021 10 16.0934 0 0
2:35 am 02:35 Cloudy 44 6.5 37 3 79 79 E 8 13 30.15 1021 10 16.0934 0 0
2:55 am 02:55 Cloudy 44 6.5 37 2.9 78 78 E 8 13 30.15 1021 10 16.0934 0 0
3:15 am 03:15 Cloudy 44 6.6 37 2.9 77 77 E 8 13 30.15 1021 10 16.0934 0 0
3:35 am 03:35 Cloudy 44 6.7 37 2.8 76 76 ENE 7 11 30.15 1021 10 16.0934 0 0
3:55 am 03:55 Cloudy 44 6.8 37 2.9 76 76 E 8 13 30.15 1021 10 16.0934 0 0
4:15 am 04:15 Cloudy 44 6.8 38 3.1 78 78 E 10 17 30.15 1021 10 16.0934 0 0
4:35 am 04:35 Cloudy 45 7 38 3.1 76 76 E 7 11 30.15 1021 10 16.0934 0 0
4:55 am 04:55 Cloudy 45 7.1 38 3.3 77 77 E 7 11 30.15 1021 10 16.0934 0 0
5:15 am 05:15 Cloudy 45 7.1 38 3.5 78 78 E 10 17 30.14 1021 10 16.0934 0 0
5:35 am 05:35 Cloudy 45 7.3 38 3.2 75 75 E 10 17 30.14 1021 10 16.0934 0 0
5:55 am 05:55 Cloudy 45 7.4 37 2.9 73 73 E 12 19 30.15 1021 10 16.0934 0 0
6:15 am 06:15 Cloudy 46 7.5 37 2.6 71 71 E 10 17 30.15 1021 10 16.0934 0 0
6:35 am 06:35 Cloudy 46 7.6 36 2.4 70 70 ESE 9 15 30.16 1021 10 16.0934 0 0
6:55 am 06:55 Cloudy 46 7.6 36 2.4 70 70 E 8 13 30.16 1021 10 16.0934 0 0
7:15 am 07:15 Cloudy 46 7.7 37 2.5 70 70 E 8 13 30.16 1021 10 16.0934 0 0
7:35 am 07:35 Cloudy 46 7.7 37 2.6 70 70 E 7 11 30.15 1021 10 16.0934 0 0
7:55 am 07:55 Cloudy with Light Rain 44 6.7 39 3.9 83 83 ENE 8 13 30.16 1021 7 11.26538 0.02 0.508
8:15 am 08:15 Cloudy with Rain 43 6.3 40 4.2 87 87 E 9 15 30.16 1021 5 8.0467 0.01 0.254
8:35 am 08:35 Cloudy with Light Rain 43 6.2 40 4.5 89 89 ENE 8 13 30.16 1021 7 11.26538 0.02 0.508
8:55 am 08:55 Cloudy 44 6.4 40 4.4 87 87 ENE 8 13 30.17 1022 10 16.0934 0.02 0.508
9:15 am 09:15 Cloudy 44 6.7 40 4.5 86 86 ENE 6 9 30.17 1022 10 16.0934 0 0
9:35 am 09:35 Cloudy 44 6.8 40 4.3 84 84 E 8 13 30.17 1022 10 16.0934 0 0
9:55 am 09:55 Cloudy 45 7 40 4.3 83 83 ENE 9 15 30.17 1022 10 16.0934 0 0
10:15 am 10:15 Cloudy 45 7.1 40 4.3 83 83 ENE 9 15 30.17 1022 10 16.0934 0 0
10:35 am 10:35 Cloudy 46 7.5 40 4.3 80 80 ENE 8 13 30.17 1022 10 16.0934 0 0
10:55 am 10:55 Cloudy 46 7.8 39 3.9 77 77 E 12 19 30.16 1021 10 16.0934 0 0
11:15 am 11:15 Cloudy 46 8 40 4.2 77 77 E 12 19 30.15 1021 10 16.0934 0 0
11:35 am 11:35 Cloudy 47 8.5 40 4.7 77 77 E 7 11 30.15 1021 10 16.0934 0 0
11:55 am 11:55 Cloudy 48 9.1 40 4.3 72 72 ESE 8 13 30.14 1021 10 16.0934 0 0
12:15 pm 12:15 Cloudy 49 9.3 39 3.9 69 69 E 10 17 30.15 1021 10 16.0934 0 0
12:35 pm 12:35 Cloudy 49 9.4 39 3.7 68 68 E 10 17 30.15 1021 10 16.0934 0 0
12:55 pm 12:55 Cloudy 49 9.6 38 3.6 66 66 E 8 13 30.14 1021 10 16.0934 0 0
1:15 pm 13:15 Cloudy 50 9.9 38 3.6 65 65 E 9 15 30.13 1020 10 16.0934 0 0
1:35 pm 13:35 Cloudy 51 10.5 40 4.3 66 66 E 6 9 30.12 1020 10 16.0934 0 0
1:55 pm 13:55 Cloudy 51 10.6 38 3.6 62 62 E 10 17 30.11 1020 10 16.0934 0 0
2:15 pm 14:15 Cloudy 51 10.6 38 3.5 62 62 ENE 5 7 30.1 1019 10 16.0934 0 0
2:35 pm 14:35 Cloudy 52 11.3 39 4 61 61 E 9 15 30.08 1018 10 16.0934 0 0
2:55 pm 14:55 Cloudy 52 11.3 39 4 61 61 ENE 9 15 30.07 1018 10 16.0934 0 0
3:15 pm 15:15 Cloudy 53 11.4 39 4 61 61 E 8 13 30.07 1018 10 16.0934 0 0
3:35 pm 15:35 Cloudy 53 11.6 39 3.8 59 59 E 8 13 30.05 1018 10 16.0934 0 0
3:55 pm 15:55 Cloudy 54 12 40 4.2 59 59 E 6 9 30.05 1018 10 16.0934 0 0
4:15 pm 16:15 Cloudy 54 12 39 4 58 58 E 7 11 30.05 1018 10 16.0934 0 0
4:35 pm 16:35 Cloudy 53 11.9 39 3.8 58 58 E 6 9 30.05 1018 10 16.0934 0 0
4:55 pm 16:55 Cloudy 54 12 40 4.2 59 59 E 7 11 30.05 1018 10 16.0934 0 0
5:15 pm 17:15 Cloudy 53 11.8 39 3.8 58 58 ENE 6 9 30.05 1018 10 16.0934 0 0
5:35 pm 17:35 Cloudy 53 11.7 40 4.3 61 61 E 5 7 30.06 1018 10 16.0934 0 0
5:55 pm 17:55 Cloudy 53 11.8 39 3.7 58 58 E 7 11 30.06 1018 10 16.0934 0 0
6:15 pm 18:15 Cloudy 53 11.7 39 3.7 58 58 E 7 11 30.05 1018 10 16.0934 0 0
6:35 pm 18:35 Cloudy 53 11.6 39 3.9 59 59 E 8 13 30.05 1018 10 16.0934 0 0
6:55 pm 18:55 Cloudy 53 11.5 39 3.8 59 59 E 6 9 30.06 1018 10 16.0934 0 0
7:15 pm 19:15 Cloudy 53 11.5 38 3.3 57 57 ESE 7 11 30.06 1018 10 16.0934 0 0
7:35 pm 19:35 Cloudy 53 11.5 38 3.4 58 58 E 7 11 30.06 1018 10 16.0934 0 0
7:55 pm 19:55 Cloudy 53 11.4 38 3.3 58 58 ESE 7 11 30.06 1018 10 16.0934 0 0
8:15 pm 20:15 Cloudy 53 11.4 37 3 57 57 ESE 8 13 30.06 1018 10 16.0934 0 0
8:35 pm 20:35 Cloudy 52 11.3 38 3.5 59 59 ESE 8 13 30.06 1018 10 16.0934 0 0
8:55 pm 20:55 Cloudy 52 11.3 38 3.4 59 59 ESE 6 9 30.07 1018 10 16.0934 0 0
9:15 pm 21:15 Cloudy 52 11.2 38 3.6 60 60 SE 3 6 30.07 1018 10 16.0934 0 0
9:35 pm 21:35 Cloudy 52 11.1 39 3.7 61 61 Calm 30.08 1018 10 16.0934 0 0
9:55 pm 21:55 Cloudy 51 10.8 40 4.5 65 65 Calm 30.07 1018 10 16.0934 0 0
10:15 pm 22:15 Cloudy 51 10.8 40 4.3 64 64 E 3 6 30.08 1019 10 16.0934 0 0
10:35 pm 22:35 Cloudy 51 10.8 39 4.1 64 64 SE 3 6 30.07 1018 10 16.0934 0 0
10:55 pm 22:55 Cloudy 51 10.6 41 4.8 68 68 Calm 30.08 1019 10 16.0934 0 0
11:15 pm 23:15 Cloudy 51 10.5 40 4.6 67 67 E 5 7 30.07 1018 10 16.0934 0 0
11:35 pm 23:35 Cloudy 51 10.5 40 4.7 68 68 Calm 30.07 1018 10 16.0934 0 0
11:55 pm 23:55 Cloudy 51 10.3 41 5.1 70 70 E 3 6 30.07 1018 10 16.0934 0 0

Powered by AerisWeather